Change the Weather History Date:

Wednesday, November 20, 2013

  Actual Average Record
Temperature  
Mean Temperature 46 °F -  
Max Temperature 54 °F 53 °F 67 °F (2014)
Min Temperature 38 °F 42 °F 35 °F (2002)
Degree Days  
Heating Degree Days 19    
Moisture  
Dew Point 36 °F    
Average Humidity 66    
Maximum Humidity 87    
Minimum Humidity 37    
Precipitation  
Precipitation 0.00 in 0.32 in - ()
Sea Level Pressure  
Sea Level Pressure 30.21 in    
Wind  
Wind Speed 4 mph ()    
Max Wind Speed 12 mph    
Max Gust Speed -    
Visibility 7.2 miles    
Events      
Averages and records for this station are not official NWS values.
T = Trace of Precipitation, MM = Missing Value Source: Averaged Metar Reports

Daily Weather History Graph

Daily Weather History Graph

Search for Another Location

Airport or City:

Trip Planner

Search our weather history database for the weather conditions in past years. The results will help you decide how hot, cold, wet, or windy it might be!

Date:

Astronomy

Nov. 20, 2013 Rise Set
Actual Time 8:31 AM CET 6:08 PM CET
Civil Twilight 8:00 AM CET 6:39 PM CET
Nautical Twilight 7:26 AM CET 7:13 PM CET
Astronomical Twilight 6:53 AM CET 7:46 PM CET
Moon 8:39 PM CET (11/20) 10:46 AM CET (11/20)
Length of Visible Light 10h 38m
Length of Day
9h 37m
Waning Gibbous, 93% of the Moon is Illuminated
Nov 20
Waning Gibbous
Nov 25
Last Quarter
Dec 3
New
Dec 9
First Quarter
Dec 17
Full

Hourly Weather History & Observations

Time (CET) Temp. Windchill Dew Point Humidity Pressure Visibility Wind Dir Wind Speed Gust Speed Precip Events Conditions
12:00 AM 42 °F - 36 °F 72% 30.27 in - NE 2.3 mph - -  
12:00 AM 42.8 °F - 37.4 °F 81% 30.24 in 6.2 mi Variable 1.2 mph - N/A   Partly Cloudy
12:30 AM 42.8 °F 41.1 °F 35.6 °F 76% 30.24 in - NE 3.5 mph - N/A   Clear
1:00 AM 44 °F - 35 °F 60% 30.26 in 12 mi NNE 11.5 mph - -  
1:00 AM 44.6 °F 39.7 °F 35.6 °F 71% 30.21 in - NNE 9.2 mph - N/A   Clear
1:30 AM 44.6 °F 41.4 °F 35.6 °F 71% 30.24 in - NE 5.8 mph - N/A   Clear
2:00 AM 42.8 °F 40.1 °F 35.6 °F 76% 30.21 in - NE 4.6 mph - N/A   Clear
2:30 AM 42.8 °F 40.1 °F 33.8 °F 70% 30.24 in - NNE 4.6 mph - N/A   Clear
3:00 AM 42 °F - 34 °F 63% 30.28 in - North 2.3 mph - -  
3:00 AM 42.8 °F - 33.8 °F 70% 30.24 in - Variable 1.2 mph - N/A   Clear
3:30 AM 39.2 °F - 35.6 °F 87% 30.24 in - Calm Calm - N/A   Clear
4:00 AM 39.2 °F - 33.8 °F 81% 30.24 in - Variable 1.2 mph - N/A   Clear
4:30 AM 39.2 °F - 35.6 °F 87% 30.24 in - Variable 2.3 mph - N/A   Clear
5:00 AM 40 °F - 34 °F 72% 30.27 in - North 4.6 mph - -  
5:00 AM 41.0 °F 39.0 °F 33.8 °F 76% 30.24 in - North 3.5 mph - N/A   Clear
5:30 AM 39.2 °F - 35.6 °F 87% 30.24 in - Calm Calm - N/A   Clear
6:00 AM 40 °F - 34 °F 72% 30.28 in - North 6.9 mph - -  
6:00 AM 41.0 °F 37.1 °F 35.6 °F 81% 30.24 in - North 5.8 mph - N/A   Clear
6:30 AM 41.0 °F 39.0 °F 33.8 °F 76% 30.24 in - NNW 3.5 mph - N/A   Clear
7:00 AM 42 °F - 34 °F 63% 30.26 in 12 mi North 3.5 mph - -  
7:00 AM 42.8 °F - 33.8 °F 70% 30.21 in - Variable 2.3 mph - N/A   Clear
7:30 AM 42.8 °F 39.3 °F 33.8 °F 70% 30.21 in - NNE 5.8 mph - N/A   Clear
8:00 AM 43 °F - 34 °F 61% 30.27 in 12 mi NNE 5.8 mph - -  
8:00 AM 44.6 °F 41.4 °F 33.8 °F 66% 30.24 in - North 5.8 mph - N/A   Clear
8:30 AM 42.8 °F 40.1 °F 33.8 °F 70% 30.24 in - NNE 4.6 mph - N/A   Clear
9:00 AM 39.2 °F 34.2 °F 33.8 °F 81% 30.24 in - North 6.9 mph - N/A   Clear
9:30 AM 42.8 °F 40.1 °F 35.6 °F 76% 30.24 in - NNE 4.6 mph - N/A   Clear
10:00 AM 44.6 °F 40.7 °F 35.6 °F 71% 30.24 in - NNE 6.9 mph - N/A   Clear
10:30 AM 46.4 °F 43.5 °F 37.4 °F 71% 30.24 in - NNE 5.8 mph - N/A   Clear
11:00 AM 50 °F - 37 °F 50% 30.27 in - NE 5.8 mph - -  
11:00 AM 48.2 °F - 35.6 °F 62% 30.24 in - NE 5.8 mph - N/A   Clear
11:30 AM 50.0 °F - 37.4 °F 62% 30.24 in - NE 5.8 mph - N/A   Clear
12:00 PM 52 °F - 37 °F 44% 30.25 in - NE 5.8 mph - -  
12:00 PM 50.0 °F - 35.6 °F 58% 30.24 in - NE 5.8 mph - N/A   Clear
12:30 PM 51.8 °F - 37.4 °F 58% 30.21 in - NE 4.6 mph - N/A   Clear
1:00 PM 53 °F - 37 °F 43% 30.24 in 31 mi NNE 3.5 mph - -   Scattered Clouds
1:00 PM 51.8 °F - 37.4 °F 58% 30.21 in - NNE 4.6 mph - N/A   Clear
1:30 PM 51.8 °F - 35.6 °F 54% 30.21 in 6.2 mi NNE 5.8 mph - N/A   Partly Cloudy
2:00 PM 54 °F - 37 °F 42% 30.22 in - North 5.8 mph - -   Unknown Precipitation
2:00 PM 53.6 °F - 39.2 °F 58% 30.21 in 6.2 mi North 4.6 mph - N/A   Partly Cloudy
2:30 PM 53.6 °F - 35.6 °F 51% 30.18 in 6.2 mi North 6.9 mph - N/A   Partly Cloudy
3:00 PM 54 °F - 35 °F 37% 30.19 in - North 9.2 mph - -  
3:00 PM 53.6 °F - 35.6 °F 51% 30.18 in 6.2 mi North 9.2 mph - N/A   Partly Cloudy
3:30 PM 53.6 °F - 37.4 °F 54% 30.18 in 6.2 mi North 8.1 mph - N/A   Partly Cloudy
4:00 PM 53.6 °F - 35.6 °F 51% 30.15 in 6.2 mi North 8.1 mph - N/A   Scattered Clouds
4:30 PM 51.8 °F - 37.4 °F 58% 30.15 in 6.2 mi North 6.9 mph - N/A   Scattered Clouds
5:00 PM 52 °F - 36 °F 43% 30.18 in - NNW 9.2 mph - -  
5:00 PM 51.8 °F - 37.4 °F 58% 30.15 in 6.2 mi North 8.1 mph - N/A   Scattered Clouds
5:30 PM 50.0 °F - 37.4 °F 62% 30.15 in 6.2 mi NNW 8.1 mph - N/A   Scattered Clouds
6:00 PM 49 °F - 36 °F 51% 30.19 in - NNW 8.1 mph - -  
6:00 PM 48.2 °F - 37.4 °F 66% 30.15 in 6.2 mi NNW 6.9 mph - N/A   Scattered Clouds
6:30 PM 48.2 °F - 35.6 °F 62% 30.15 in 6.2 mi North 8.1 mph - N/A   Partly Cloudy
7:00 PM 46 °F - 36 °F 59% 30.20 in 25 mi North 4.6 mph - -   Scattered Clouds
7:00 PM 46.4 °F 44.3 °F 37.4 °F 71% 30.18 in 6.2 mi North 4.6 mph - N/A   Partly Cloudy
7:30 PM 46.4 °F 45.2 °F 37.4 °F 71% 30.18 in 6.2 mi North 3.5 mph - N/A   Partly Cloudy
8:00 PM 45 °F - 36 °F 62% 30.20 in - North 3.5 mph - -  
8:00 PM 44.6 °F 43.1 °F 37.4 °F 76% 30.15 in 6.2 mi North 3.5 mph - N/A   Partly Cloudy
8:30 PM 44.6 °F 43.1 °F 37.4 °F 76% 30.15 in - NNE 3.5 mph - N/A   Clear
9:00 PM 43 °F - 36 °F 68% 30.19 in - North 2.3 mph - -  
9:00 PM 42.8 °F - 37.4 °F 81% 30.15 in - Variable 2.3 mph - N/A   Clear
9:30 PM 42.8 °F - 35.6 °F 76% 30.15 in - Variable 2.3 mph - N/A   Clear
10:00 PM 42.8 °F 41.1 °F 35.6 °F 76% 30.15 in - North 3.5 mph - N/A   Clear
10:30 PM 42.8 °F 41.1 °F 35.6 °F 76% 30.15 in - North 3.5 mph - N/A   Clear
11:00 PM 42 °F - 36 °F 72% 30.20 in - NNW 3.5 mph - -  
11:00 PM 42.8 °F - 37.4 °F 81% 30.15 in - Variable 2.3 mph - N/A   Clear
11:30 PM 42.8 °F - 37.4 °F 81% 30.15 in - Variable 1.2 mph - N/A   Clear